[[{"header":{"parameterUnit":"m.s-1","parameterCategory":1,"la1":30.2991,"la2":30.254,"lo1":-89.0895,"lo2":-89.0444,"dy":0.0017,"dx":0.0017,"nx":28,"ny":28,"refTime":"2025-03-21T09:00:00:Z","depth":0,"parameterNumber":2,"parameterNumberName":"U-component_of_WINDS"},"data":[0,0,0,0,0,0,0,0,0,0,0,0,0,0,0,0,0,0,0,0,0,0,0,0,0,0,0,0,0,0,0,0,0,0,0,0,0,0,0,0,0,0,0,0,0,0,0,0,0,0,0,0,0,0,0,0,0,0,-3.5412,-3.5412,0,-3.541,-3.541,-3.541,-3.5329,-3.5326,-3.5324,-3.5322,-3.532,-3.5322,-3.5324,0,0,0,0,0,0,0,0,0,0,0,0,0,-3.5345,-3.5346,-3.5412,-3.5412,-3.5412,-3.541,-3.541,-3.541,-3.5329,-3.5326,-3.5324,-3.5321,-3.5319,-3.5322,-3.5324,0,0,0,0,0,0,0,0,0,0,0,0,0,-3.5362,-3.5347,-3.5412,-3.5371,-3.5367,-3.541,-3.541,-3.541,-3.5329,-3.5326,-3.5323,-3.532,-3.5319,-3.5322,-3.5324,-3.5406,0,0,-3.5333,-3.5334,0,0,0,0,0,0,0,0,-3.5361,-3.5364,-3.5377,-3.5374,-3.537,-3.5366,-3.5386,-3.5409,-3.533,-3.5344,-3.5322,-3.5319,-3.5338,-3.5339,-3.5346,-3.5406,-3.5406,-3.5333,-3.5335,-3.5336,-3.5337,0,0,0,0,0,0,0,-3.536,-3.5364,-3.5411,-3.5377,-3.5373,-3.5353,-3.5352,-3.539,-3.5359,-3.5342,-3.5337,-3.5337,-3.5335,-3.5343,-3.5345,-3.5406,-3.5333,-3.5336,-3.5338,-3.5339,-3.5533,-3.5536,0,0,0,0,0,0,-3.5364,-3.5363,-3.5411,-3.5411,-3.5357,-3.5357,-3.5355,-3.5371,-3.5358,-3.5353,-3.534,-3.5334,-3.534,-3.5342,-3.5345,-3.544,-3.5336,-3.5339,-3.5341,-3.553,-3.5534,-3.5537,0,0,0,0,0,0,-3.5363,-3.5369,-3.5411,-3.5386,-3.5389,-3.5361,-3.5379,-3.5372,-3.538,-3.5356,-3.5351,-3.5354,-3.5337,-3.5341,-3.5391,-3.5438,-3.534,-3.5343,-3.5526,-3.5531,-3.5536,-3.563,0,0,0,0,0,0,-3.5361,-3.5369,-3.54,-3.5387,-3.5391,-3.5458,-3.5382,-3.5375,-3.5385,-3.5377,-3.5368,-3.5363,-3.5335,-3.5388,-3.5394,-3.5441,-3.5345,-3.5521,-3.5528,-3.5534,-3.5623,-3.5638,-3.5651,0,0,0,0,0,-3.5359,-3.5426,-3.5402,-3.5408,-3.5429,-3.5461,-3.5464,-3.543,-3.5389,-3.542,-3.5405,-3.5363,-3.5432,-3.5393,-3.54,-3.5448,-3.5518,-3.5526,-3.5534,-3.5616,-3.5635,-3.5651,0,0,0,0,0,0,-3.5445,-3.5424,-3.5396,-3.5461,-3.5464,-3.5447,-3.5485,-3.5451,-3.5465,-3.5456,-3.5414,-3.5413,-3.547,-3.5464,-3.5421,-3.5527,-3.5468,-3.5477,-3.5529,-3.5546,-3.556,-3.556,-3.5348,0,0,0,0,0,-3.5472,-3.55,-3.548,-3.5539,-3.5542,-3.5513,-3.5526,-3.55,-3.5501,-3.5502,-3.549,-3.5492,-3.5514,-3.553,-3.5549,-3.5622,-3.5619,-3.5658,-3.5672,-3.5684,-3.5692,-3.5731,-3.5748,-3.5563,-3.5563,-3.5563,0,0,-3.5526,-3.5518,-3.5539,-3.5556,-3.5555,-3.5585,-3.5515,-3.5549,-3.5571,-3.5507,-3.5554,-3.5546,-3.5546,-3.5608,-3.5635,-3.5605,-3.5743,-3.5694,-3.5703,-3.5705,-3.5741,-3.5758,-3.5774,-3.5568,-3.5567,-3.5566,0,0,-3.5642,-3.5639,-3.5688,-3.5688,-3.5688,-3.5669,-3.5681,-3.567,-3.5662,-3.5709,-3.5662,-3.5687,-3.5726,-3.5728,-3.5734,-3.5852,-3.5814,-3.5859,-3.5933,-3.5971,-3.5985,-3.5998,-3.604,-3.6056,-3.5868,-3.5868,-3.5868,0,-3.571,-3.5754,-3.5717,-3.5756,-3.5765,-3.5708,-3.5758,-3.576,-3.5766,-3.5773,-3.574,-3.5788,-3.5784,-3.5846,-3.5875,-3.5882,-3.5894,-3.586,-3.5986,-3.5998,-3.601,-3.605,-3.6066,-3.5873,-3.5873,-3.5872,-3.5872,0,-3.5838,-3.5869,-3.5909,-3.5916,-3.593,-3.5974,-3.5944,-3.5962,-3.5936,-3.5921,-3.5969,-3.5963,-3.5979,-3.5992,-3.5966,-3.6051,-3.6033,-3.5993,-3.5933,-3.6034,-3.607,-3.6085,-3.5881,-3.5879,-3.5878,-3.5876,0,0,-3.6006,-3.5994,-3.6009,-3.6012,-3.6008,-3.6031,-3.6073,-3.609,-3.6106,-3.6113,-3.6146,-3.6181,-3.6145,-3.6152,-3.6126,-3.6159,-3.6253,-3.6116,-3.6115,-3.6142,-3.6347,-3.6376,-3.6395,-3.6229,-3.6231,-3.6234,-3.6347,0,-3.6118,-3.6189,-3.6158,-3.6231,-3.626,-3.6207,-3.6243,-3.6245,-3.6232,-3.6254,-3.6239,-3.6265,-3.6215,-3.6219,-3.625,-3.6236,-3.6294,-3.6227,-3.626,-3.6261,-3.6261,-3.6414,-3.6445,-3.6552,-3.6361,-3.6363,-3.6365,0,-3.6258,-3.6271,-3.6347,-3.6339,-3.6349,-3.6382,-3.6396,-3.6418,-3.6419,-3.6407,-3.6416,-3.6382,-3.6422,-3.6363,-3.6418,-3.6373,-3.6385,-3.638,-3.6383,-3.6385,-3.6319,-3.6419,-3.6585,-3.6602,-3.6387,-3.6385,-3.6384,0,-3.6374,-3.641,-3.646,-3.6464,-3.6456,-3.648,-3.6478,-3.6475,-3.6488,-3.6499,-3.6507,-3.6523,-3.6532,-3.6546,-3.6518,-3.6477,-3.6577,-3.6515,-3.6568,-3.6569,-3.6591,-3.659,-3.6761,-3.6599,-3.6599,-3.6599,-3.6598,0,-3.6501,-3.655,-3.6512,-3.6543,-3.6597,-3.6561,-3.6615,-3.6606,-3.6605,-3.6633,-3.6589,-3.6617,-3.6578,-3.6602,-3.6581,-3.663,-3.6634,-3.6626,-3.6619,-3.6629,-3.6631,-3.6636,-3.6628,-3.6603,-3.6602,-3.6601,-3.6601,0,-3.6639,-3.6616,-3.6667,-3.6655,-3.6653,-3.6693,-3.6683,-3.6711,-3.6695,-3.6732,-3.6739,-3.6714,-3.674,-3.6714,-3.6738,-3.6724,-3.679,-3.6772,-3.679,-3.6785,-3.6839,-3.6834,-3.702,-3.7042,-3.6866,-3.6868,-3.6869,0,-3.6722,-3.6759,-3.6751,-3.6767,-3.6768,-3.6794,-3.6807,-3.6773,-3.6788,-3.6793,-3.6821,-3.6843,-3.6859,-3.6904,-3.6888,-3.6906,-3.6889,-3.6953,-3.6892,-3.6901,-3.689,-3.6888,-3.6892,-3.6965,-3.6968,-3.6969,-3.6971,0,-3.6872,-3.6859,-3.6879,-3.6896,-3.6913,-3.6924,-3.6932,-3.6948,-3.6913,-3.6932,-3.6959,-3.6972,-3.6997,-3.702,-3.7034,-3.7031,-3.6996,-3.699,-3.7003,-3.7014,-3.7023,-3.7019,-3.6823,-3.6986,-3.6984,-3.6983,-3.6983,-3.6982,-3.6985,-3.7015,-3.7015,-3.7039,-3.7042,-3.7051,-3.7077,-3.7065,-3.7087,-3.7105,-3.7084,-3.7116,-3.7117,-3.7132,-3.7133,-3.7158,-3.7131,-3.7151,-3.7155,-3.7161,-3.7169,-3.7019,-3.7161,-3.716,-3.716,-3.7159,-3.7159,0,-3.7133,-3.713,-3.7153,-3.7166,-3.7185,-3.7151,-3.7158,-3.7176,-3.7206,-3.7209,-3.7226,-3.7257,-3.728,-3.7266,-3.7285,-3.7308,-3.7292,-3.7314,-3.7312,-3.7312,-3.7192,-3.7178,-3.7327,-3.7327,-3.7327,-3.7327,-3.7327,-3.7326,-3.7212,-3.7262,-3.7249,-3.7299,-3.7296,-3.7328,-3.7335,-3.7343,-3.7346,-3.7382,-3.7401,-3.7392,-3.7389,-3.7408,-3.7427,-3.7422,-3.7431,-3.7459,-3.7449,-3.7337,-3.732,-3.7305,-3.7292,-3.7462,-3.7462,-3.7567,-3.7568,-3.7569]},{"header":{"parameterUnit":"m.s-1","parameterCategory":1,"la1":30.2991,"la2":30.254,"lo1":-89.0895,"lo2":-89.0444,"dy":0.0017,"dx":0.0017,"nx":28,"ny":28,"refTime":"2025-03-21T09:00:00:Z","depth":0,"parameterNumber":3,"parameterNumberName":"V-component_of_WINDS"},"data":[0,0,0,0,0,0,0,0,0,0,0,0,0,0,0,0,0,0,0,0,0,0,0,0,0,0,0,0,0,0,0,0,0,0,0,0,0,0,0,0,0,0,0,0,0,0,0,0,0,0,0,0,0,0,0,0,0,0,-1.1364,-1.1364,0,-1.1397,-1.1397,-1.1398,-1.1366,-1.1365,-1.1364,-1.1362,-1.1398,-1.14,-1.1402,0,0,0,0,0,0,0,0,0,0,0,0,0,-1.1274,-1.1276,-1.1364,-1.1364,-1.1365,-1.1397,-1.1397,-1.1398,-1.1366,-1.1365,-1.1363,-1.1362,-1.1397,-1.1399,-1.1402,0,0,0,0,0,0,0,0,0,0,0,0,0,-1.1311,-1.1277,-1.1364,-1.1353,-1.1352,-1.1397,-1.1397,-1.1398,-1.1367,-1.1365,-1.1363,-1.1361,-1.1396,-1.1399,-1.1402,-1.146,0,0,-1.1412,-1.1413,0,0,0,0,0,0,0,0,-1.1309,-1.1314,-1.1354,-1.1354,-1.1353,-1.1375,-1.1379,-1.1419,-1.1367,-1.1361,-1.1362,-1.136,-1.1392,-1.1395,-1.1406,-1.1461,-1.1463,-1.1412,-1.1414,-1.1415,-1.1416,0,0,0,0,0,0,0,-1.1306,-1.1313,-1.1377,-1.1355,-1.1354,-1.1346,-1.135,-1.1386,-1.1387,-1.1362,-1.1359,-1.1364,-1.1391,-1.1403,-1.1406,-1.1463,-1.1412,-1.1415,-1.1417,-1.1418,-1.1567,-1.1569,0,0,0,0,0,0,-1.1305,-1.1311,-1.1376,-1.1378,-1.1326,-1.135,-1.1353,-1.137,-1.1386,-1.1387,-1.1365,-1.1362,-1.1398,-1.1402,-1.1407,-1.1476,-1.1415,-1.1418,-1.142,-1.1565,-1.1568,-1.157,0,0,0,0,0,0,-1.1303,-1.1311,-1.1375,-1.1344,-1.1351,-1.1353,-1.1373,-1.1372,-1.1383,-1.1389,-1.1389,-1.1377,-1.1397,-1.1403,-1.1447,-1.1476,-1.142,-1.1423,-1.1563,-1.1566,-1.1569,-1.1613,0,0,0,0,0,0,-1.1301,-1.1311,-1.1332,-1.1344,-1.1353,-1.1414,-1.1374,-1.1374,-1.1389,-1.1385,-1.14,-1.1401,-1.1396,-1.1442,-1.145,-1.148,-1.1425,-1.156,-1.1564,-1.1568,-1.1609,-1.1617,-1.1624,0,0,0,0,0,-1.1298,-1.1344,-1.1334,-1.1342,-1.138,-1.1415,-1.142,-1.1413,-1.1391,-1.1413,-1.1417,-1.14,-1.1472,-1.1447,-1.1455,-1.1487,-1.1558,-1.1563,-1.1568,-1.1605,-1.1615,-1.1624,0,0,0,0,0,0,-1.1336,-1.1345,-1.1334,-1.1386,-1.14,-1.141,-1.1438,-1.1424,-1.1446,-1.1441,-1.1432,-1.1436,-1.1482,-1.1489,-1.1461,-1.1543,-1.1511,-1.1518,-1.1537,-1.1547,-1.1554,-1.1552,-1.1428,0,0,0,0,0,-1.135,-1.1377,-1.1384,-1.1429,-1.1437,-1.1436,-1.1451,-1.1444,-1.1459,-1.1465,-1.1472,-1.1487,-1.1512,-1.153,-1.1554,-1.1609,-1.1612,-1.1635,-1.1642,-1.1649,-1.1655,-1.1684,-1.1695,-1.1585,-1.1585,-1.1585,0,0,-1.138,-1.1389,-1.1407,-1.1437,-1.1447,-1.1476,-1.1441,-1.1473,-1.1494,-1.147,-1.1512,-1.1517,-1.1533,-1.1583,-1.1605,-1.159,-1.1685,-1.1655,-1.166,-1.1662,-1.169,-1.1701,-1.171,-1.1589,-1.1588,-1.1588,0,0,-1.145,-1.1459,-1.1497,-1.1508,-1.1524,-1.1523,-1.1532,-1.1544,-1.1546,-1.1588,-1.157,-1.1595,-1.164,-1.1652,-1.1664,-1.1737,-1.1723,-1.1745,-1.1786,-1.1815,-1.1823,-1.1831,-1.1857,-1.1867,-1.1751,-1.1751,-1.1751,0,-1.1486,-1.1528,-1.1519,-1.1552,-1.1566,-1.1544,-1.1582,-1.1593,-1.1616,-1.1626,-1.1608,-1.1664,-1.1673,-1.1725,-1.1743,-1.1753,-1.1764,-1.1744,-1.1823,-1.183,-1.1837,-1.1862,-1.1872,-1.1754,-1.1753,-1.1753,-1.1753,0,-1.1571,-1.1601,-1.163,-1.1652,-1.1669,-1.1705,-1.1701,-1.1719,-1.1711,-1.1711,-1.1754,-1.1764,-1.179,-1.1801,-1.1794,-1.1853,-1.1843,-1.1824,-1.1792,-1.185,-1.1874,-1.1883,-1.1757,-1.1756,-1.1756,-1.1755,0,0,-1.1667,-1.1683,-1.1694,-1.1703,-1.1719,-1.1741,-1.1776,-1.18,-1.1816,-1.1832,-1.1861,-1.1899,-1.1882,-1.1895,-1.1889,-1.1914,-1.1972,-1.1892,-1.1892,-1.1907,-1.2037,-1.2052,-1.2063,-1.1961,-1.1963,-1.1965,-1.2036,0,-1.1738,-1.1798,-1.179,-1.1847,-1.1874,-1.1853,-1.1883,-1.1896,-1.1898,-1.1921,-1.1922,-1.195,-1.1924,-1.1932,-1.1956,-1.1959,-1.1998,-1.1954,-1.1989,-1.199,-1.1987,-1.2075,-1.2091,-1.2158,-1.2045,-1.2047,-1.2048,0,-1.1829,-1.1847,-1.1908,-1.1918,-1.1929,-1.1956,-1.1978,-1.2,-1.2014,-1.2013,-1.2028,-1.2016,-1.2051,-1.2018,-1.2066,-1.2037,-1.205,-1.2054,-1.2056,-1.206,-1.2023,-1.2082,-1.2179,-1.219,-1.2062,-1.2061,-1.206,0,-1.1893,-1.1934,-1.1975,-1.1983,-1.1996,-1.2016,-1.2022,-1.2034,-1.2049,-1.2068,-1.2078,-1.21,-1.2113,-1.2131,-1.2126,-1.2102,-1.2175,-1.2142,-1.2176,-1.2176,-1.2193,-1.2193,-1.2295,-1.2201,-1.2201,-1.22,-1.22,0,-1.1973,-1.2011,-1.2004,-1.2029,-1.2071,-1.2061,-1.2102,-1.2106,-1.2117,-1.2143,-1.2125,-1.215,-1.2142,-1.2166,-1.2162,-1.2203,-1.2208,-1.2209,-1.2208,-1.2211,-1.2211,-1.2221,-1.2216,-1.2203,-1.2202,-1.2202,-1.2201,0,-1.2053,-1.205,-1.2093,-1.2101,-1.2104,-1.2135,-1.2142,-1.2166,-1.2165,-1.2198,-1.2205,-1.2205,-1.2233,-1.2229,-1.226,-1.2258,-1.2308,-1.2301,-1.2303,-1.2302,-1.2337,-1.2334,-1.2449,-1.2464,-1.236,-1.2361,-1.2362,0,-1.2105,-1.2133,-1.2144,-1.216,-1.2168,-1.2194,-1.2209,-1.22,-1.2216,-1.2233,-1.2255,-1.2281,-1.2302,-1.2347,-1.2349,-1.2373,-1.2367,-1.2405,-1.237,-1.2373,-1.2368,-1.2367,-1.237,-1.2413,-1.2414,-1.2415,-1.2416,0,-1.2197,-1.2194,-1.2216,-1.2238,-1.2256,-1.2272,-1.2287,-1.2301,-1.2294,-1.2313,-1.2341,-1.2356,-1.2387,-1.2414,-1.2436,-1.2442,-1.2428,-1.2426,-1.2436,-1.244,-1.2441,-1.2441,-1.2323,-1.2424,-1.2423,-1.2423,-1.2422,-1.2422,-1.2265,-1.2289,-1.2301,-1.2326,-1.2336,-1.235,-1.2373,-1.2375,-1.2398,-1.2422,-1.2415,-1.2447,-1.2459,-1.2487,-1.2496,-1.2521,-1.2507,-1.252,-1.2523,-1.2527,-1.2532,-1.2436,-1.2524,-1.2524,-1.2524,-1.2524,-1.2524,0,-1.2357,-1.2363,-1.2386,-1.2407,-1.2427,-1.2411,-1.2426,-1.2444,-1.2472,-1.2484,-1.2504,-1.2536,-1.2561,-1.2565,-1.2589,-1.2608,-1.2602,-1.2614,-1.2614,-1.2615,-1.2543,-1.2532,-1.2619,-1.2619,-1.2619,-1.2619,-1.2619,-1.2619,-1.2408,-1.2448,-1.2446,-1.249,-1.2496,-1.2527,-1.2537,-1.255,-1.256,-1.2596,-1.2616,-1.2618,-1.2627,-1.2652,-1.2674,-1.2674,-1.2684,-1.27,-1.2698,-1.263,-1.262,-1.2611,-1.2602,-1.2702,-1.2702,-1.2769,-1.2769,-1.277]}]]